Location: Culleoka
(33.1312°N, 96.4919°W)
Time: 01:33:28
(UTC+00:00)

Lacrosse 5 rocket - Pass Details

Date: 03 July 2022
Orbit: 456 x 628 km, 57.0° (Epoch: 09 August)

Event Time Altitude Azimuth Distance (km) Brightness Sun altitude
Rises 04:41:01 0° 302° (WNW) 2,646 5.7 -28.2°
Reaches altitude 10° 04:43:41 10° 283° (WNW) 1,790 4.4 -28.4°
Enters shadow 04:44:51 15° 268° (W) 1,528 3.8 -28.5°
